Regional Weather Roundup
Issued by NWS

Home | Current Version | Previous Version | Graphics & Text | Print | Product List | Glossary On
Versions: 1 2 3 4 5 6 7 8 9 10 11 12 13 14 15 16 17 18 19 20 21 22 23 24 25 26 27 28 29 30 31 32 33 34 35 36 37 38 39 40 41 42 43 44 45 46 47 48 49 50
000
ASUS43 KOAX 220302
RWRNE

WEATHER ROUNDUP FOR NEBRASKA
NATIONAL WEATHER SERVICE OMAHA NE
1000 PM CDT TUE MAR 21 2017

NOTES: SATELLITE DATA IS BEING USED TO AUGMENT CLOUD COVER ABOVE
       12000 FEET.
       "FAIR" INDICATES FEW OR NO CLOUDS BELOW 12,000 FEET WITH NO
       SIGNIFICANT WEATHER AND/OR OBSTRUCTIONS TO VISIBILITY.

  * THESE STATIONS DO NOT REPORT WEATHER SUCH AS RAIN...SNOW OR FOG.

NEZ001>004-019>022-054>056-220400-
NEBRASKA PANHANDLE

CITY           SKY/WX    TMP DP  RH WIND       PRES   REMARKS
SCOTTSBLUFF    MOCLDY    49  26  41 SE20      30.15F
ALLIANCE       CLOUDY    37  32  82 SE21      30.23R WCI  26
CHADRON        CLOUDY    39  32  76 E10       30.20R WCI  32
KIMBALL        CLOUDY    47  28  47 SE28G35   30.14F
SIDNEY         CLOUDY    47  23  38 SE20      30.21R
$$

NEZ057>060-069>072-079>082-220400-
SOUTHWEST NEBRASKA

CITY           SKY/WX    TMP DP  RH WIND       PRES   REMARKS
NORTH PLATTE   CLOUDY    39  32  76 E20       30.30F WCI  29
IMPERIAL       CLOUDY    42  32  67 E18       30.27R
LEXINGTON      CLOUDY    41  32  69 E10       30.35F
MCCOOK         CLOUDY    42  33  70 E16       30.31R
OGALLALA       CLOUDY    40  33  74 E14G22    30.29R WCI  33
$$

NEZ005>010-023>029-035>040-094-220400-
NORTH CENTRAL NEBRASKA

CITY           SKY/WX    TMP DP  RH WIND       PRES   REMARKS
VALENTINE      CLOUDY    31  26  82 E12       30.36S WCI  22
AINSWORTH      CLOUDY    32  29  92 E6        30.38S WCI  26
BROKEN BOW     CLOUDY    36  25  64 E14       30.37R WCI  27
O`NEILL        CLOUDY    35  32  90 CALM      30.41S
ORD            CLOUDY    35  26  69 NE5       30.40R WCI  31
THEDFORD       CLOUDY    34  29  80 E14       30.34S WCI  25
$$

NEZ041-046>049-061>064-073>077-083>087-220400-
SOUTH CENTRAL NEBRASKA

CITY           SKY/WX    TMP DP  RH WIND       PRES   REMARKS
GRAND ISLAND   CLOUDY    35  27  72 NE9       30.40R WCI  28
AURORA         PTCLDY    35  25  66 NE8       30.39S WCI  28
HASTINGS       MOCLDY    38  25  59 NE13      30.39R WCI  30
HEBRON         CLOUDY    40  23  50 NE9       30.37R WCI  34
HOLDREGE       PTCLDY    39  30  70 NE13      30.35S WCI  31
KEARNEY *      CLOUDY    39  23  52 NE17      30.38R WCI  30
YORK           PTCLDY    36  27  69 NE6       30.40R WCI  31
$$

NEZ011>018-030>034-042>045-220400-
NORTHEAST NEBRASKA

CITY           SKY/WX    TMP DP  RH WIND       PRES   REMARKS
NORFOLK        CLOUDY    38  22  52 NE10      30.42R WCI  31
ALBION         CLOUDY    38  28  67 CALM      30.41S
BLAIR          CLOUDY    42  26  52 NE10      30.40R
FREMONT        MOCLDY    42  26  52 N5        30.42R
TEKAMAH        CLOUDY    39  27  62 N13       30.44R WCI  31
WAYNE          CLOUDY    37  29  73 NE8       30.44R WCI  30
$$

NEZ050>053-065>068-078-088>093-220400-
SOUTHEAST NEBRASKA

CITY           SKY/WX    TMP DP  RH WIND       PRES   REMARKS
LINCOLN        PTCLDY    36  27  69 N8        30.41R WCI  30
OMAHA EPPLEY   MOCLDY    44  24  45 NE12      30.41R
BEATRICE       PTCLDY    39  28  64 NE9       30.38R WCI  33
FALLS CITY     CLEAR     42  25  50 NE6       30.36R
NEBRASKA CITY  PTCLDY    41  19  42 NE9       30.39R
PLATTSMOUTH    MOCLDY    42  20  40 NE8       30.39R
$$

NEZ044-045-051>053-067-220400-
OMAHA AREA

CITY           SKY/WX    TMP DP  RH WIND       PRES   REMARKS
OMAHA EPPLEY   MOCLDY    44  24  45 NE12      30.41R
BLAIR          CLOUDY    42  26  52 NE10      30.40R
FREMONT        MOCLDY    42  26  52 N5        30.42R
MILLARD        CLOUDY    46  24  42 NE9       30.41R
OFFUTT AFB     CLOUDY    43  22  43 NE12      30.40R
PLATTSMOUTH    MOCLDY    42  20  40 NE8       30.39R
WAHOO          FAIR      39  25  58 N7        30.41R WCI  34
$$




USA.gov is the U.S. government's official web portal to all federal, state and local government web resources and services.